Regional Weather Roundup
Issued by NWS

Home | Current Version | Previous Version | Text Only | Print | Product List | Glossary On
Versions: 1 2 3 4 5 6 7 8 9 10 11 12 13 14 15 16 17 18 19 20 21 22 23 24 25 26 27 28 29 30 31 32 33 34 35 36 37 38 39 40 41 42 43 44 45 46 47 48 49 50
000
ASUS43 KTOP 012208
RWRKS

WEATHER ROUNDUP FOR KANSAS
NATIONAL WEATHER SERVICE GOODLAND KS
500 PM CDT FRI AUG 01 2014

NOTE:  "FAIR" INDICATES FEW OR NO CLOUDS BELOW 12,000 FEET WITH NO
SIGNIFICANT WEATHER AND/OR OBSTRUCTIONS TO VISIBILITY.

KSZ001>006-013>018-027>032-041>047-012300-
NORTHWEST KANSAS

CITY           SKY/WX    TMP DP  RH WIND       PRES   REMARKS
GOODLAND       MOSUNNY   86  47  25 SE10      30.16S
HAYS           SUNNY     91  52  25 N13       30.07F
HILL CITY      MOSUNNY   92  48  22 E12       30.09S
RUSSELL        MOSUNNY   91  51  25 N10       30.05S
$$

KSZ061>065-074>080-084>089-012300-
SOUTHWEST KANSAS

CITY           SKY/WX    TMP DP  RH WIND       PRES   REMARKS
DODGE CITY     MOSUNNY   89  50  26 NE9       30.11F
ELKHART          N/A     86  52  31 SE5         N/A
GARDEN CITY    MOSUNNY   86  51  29 CALM      30.12S
GREAT BEND       N/A     90  54  29 NE9       30.05S
LIBERAL        MOSUNNY   86  50  28 NE7       30.14S
PRATT          SUNNY     86  52  30 N9        30.08S
$$

KSZ066>073-081>083-090>101-012300-
SOUTHEAST KANSAS

CITY           SKY/WX    TMP DP  RH WIND       PRES   REMARKS
CHANUTE        MOSUNNY   83  63  50 S9        30.05F
COFFEYVILLE    SUNNY     84  62  47 W7        30.05S
HUTCHINSON     SUNNY     92  52  25 N12       30.03F
MEDICINE LODGE   N/A     91  58  32 NE9       30.02F
NEWTON         MOSUNNY   90  48  24 N9        30.06F
PARSONS        MOSUNNY   85  64  49 SW8       30.06F
WICHITA INTL   MOSUNNY   90  54  29 N9        30.02S
WICHITA JABRA  MOSUNNY   91  56  30 VRB6      30.02S
WICHITA MCCONL MOSUNNY   85  60  43 SE10      30.03S
WINFIELD       MOSUNNY   85  67  54 S10       30.05F
$$

KSZ007>012-019>026-033>040-048>060-102>105-012300-
NORTHEAST KANSAS

CITY           SKY/WX    TMP DP  RH WIND       PRES   REMARKS
CONCORDIA      SUNNY     86  58  38 N10G22    30.05S
EMPORIA        CLOUDY    83  63  50 SE12      30.01F
LAWRENCE       SUNNY     86  62  44 SE8       30.03F
MANHATTAN      MOSUNNY   89  58  34 VRB5      30.00F
MARYSVILLE     PTSUNNY   86  59  39 NE8       30.02S
OLATHE IND     PTSUNNY   83  59  44 SE3       30.05F
OLATHE EXE     MOSUNNY   83  60  45 VRB3      30.05F
SALINA         SUNNY     93  47  20 N21       30.03S
TOPEKA BILLARD MOSUNNY   91  60  35 E13       30.01F
TOPEKA FORBES  SUNNY     89  58  34 SE10      30.02F
$$



USA.gov is the U.S. government's official web portal to all federal, state and local government web resources and services.